Regional Weather Roundup
Issued by NWS Boston, MA

Current Version | Previous Version | Text Only | Print | Product List | Glossary Off
Versions: 1 2 3 4 5 6 7 8 9 10 11 12 13 14 15 16 17 18 19 20 21 22 23 24 25 26 27 28
000 ASUS41 KBOX 192310 RWRBOX REGIONAL WEATHER ROUNDUP NATIONAL WEATHER SERVICE BOSTON/NORTON MA 700 PM EDT THU APR 19 2018 NOTE: "FAIR" INDICATES FEW OR NO CLOUDS BELOW 12,000 FEET WITH NO SIGNIFICANT WEATHER AND/OR OBSTRUCTIONS TO VISIBILITY. MAZALL-200000- EASTERN MASSACHUSETTS CITY SKY/WX TMP DP RH WIND PRES REMARKS BOSTON MOCLDY 43 35 73 NW16 29.73R BEVERLY CLOUDY 42 38 85 W6 29.71R LAWRENCE MOCLDY 45 36 70 NW7 29.74R BEDFORD CLOUDY 43 36 76 NW10 29.72R BLUE HILL N/A 38 37 97 NW10G22 29.70R WCI 31 NORWOOD RAIN 44 38 79 W9 29.74R MARSHFIELD FAIR 41 41 100 VRB3 29.72R PLYMOUTH FAIR 43 38 82 W7 29.72S TAUNTON FAIR 43 38 82 W5 29.73R NEW BEDFORD MOCLDY 42 38 85 W5 29.73R $$ MAZALL-200000- CAPE COD AND THE ISLANDS CITY SKY/WX TMP DP RH WIND PRES REMARKS FALMOUTH CLOUDY 41 39 93 W7 29.73 HYANNIS FAIR 41 38 89 W5 29.71R CHATHAM FAIR 40 36 86 VRB3 29.72S PROVINCETOWN FAIR 40 38 93 W6 29.72R NANTUCKET MOCLDY 40 40 100 NW5 29.73R MARTHAS VNYRD MOCLDY 41 39 93 W3 29.74R $$ MAZALL-200000- CENTRAL AND WESTERN MASSACHUSETTS CITY SKY/WX TMP DP RH WIND PRES REMARKS WORCESTER CLOUDY 37 33 85 W14 29.72S WCI 28 FITCHBURG FAIR 45 34 65 NW10 29.75R ORANGE LGT RAIN 38 35 89 W6 29.77R SPRINGFIELD MOCLDY 41 30 64 NW18G24 29.77R WESTFIELD CLOUDY 41 29 62 NW12 29.78R NORTH ADAMS FLURRIES 33 31 92 SW7 29.81 WCI 27 PITTSFIELD FLURRIES 35 26 69 W13G21 29.78R WCI 26 $$ RIZALL-200000- RHODE ISLAND CITY SKY/WX TMP DP RH WIND PRES REMARKS PROVIDENCE MOCLDY 43 38 82 W10 29.75R NEWPORT CLOUDY 43 37 79 W8 29.74R BLOCK ISLAND CLOUDY 41 39 93 W10 29.78R SMITHFIELD CLOUDY 41 36 81 MISG 29.75R WESTERLY MOCLDY 45 38 76 NW5 29.78R $$ CTZALL-200000- CONNECTICUT CITY SKY/WX TMP DP RH WIND PRES REMARKS BRADLEY INTL MOCLDY 42 28 57 NW16G23 29.79R HARTFORD CLOUDY 43 27 53 NW15G23 29.80R BRIDGEPORT LGT RAIN 40 35 83 NW13G22 29.83R DANBURY CLOUDY 39 32 76 NW7 29.84R GROTON CLOUDY 44 36 73 W10 29.78R NEW HAVEN CLOUDY 41 34 76 NW9 29.82R CHESTER MOCLDY 41 34 75 NW10G18 29.79R MERIDEN CLOUDY 41 31 67 NW12 29.81R WILLIMANTIC LGT RAIN 42 35 76 W10G18 29.78R OXFORD LGT RAIN 37 33 85 NW7 29.81R WCI 32 $$ MEZ002-015-021-024-NHZ003-005-008-011-012-014-VTZ005-008-200000- NORTHERN NEW ENGLAND CITY SKY/WX TMP DP RH WIND PRES REMARKS PORTLAND ME LGT RAIN 40 36 86 NW13G21 29.71R BANGOR ME LGT RAIN 43 34 70 W5 29.68R CONCORD NH CLOUDY 42 31 64 NW14G21 29.73R MANCHESTER NH MOCLDY 46 30 53 NW8 29.72R NASHUA NH MOCLDY 43 35 73 NW12 29.74R PORTSMOUTH NH MOCLDY 43 34 71 NW9 29.69 JAFFREY NH LGT RAIN 39 33 79 VRB7 29.74R KEENE NH LGT RAIN 37 32 82 N10G23 29.78R WCI 30 BURLINGTON VT LGT RAIN 38 31 76 NW12 29.82R FOG WCI 30 MT. WASHINGTON SNOW 14 14 100 W28G35 N/A VSB 0 WCI -6 $$ NYZ052-076-200000- EASTERN NEW YORK CITY SKY/WX TMP DP RH WIND PRES REMARKS ALBANY MOCLDY 41 25 53 NW17G25 29.85R NEW YORK CITY MOCLDY 46 27 47 NW21G33 29.86R $$ ANZALL-200000- MARINE OBSERVATIONS STATION/POSITION TIME TEMP WIND PRES VSBY WAVE AIR SEA DIR/SP/G HT/PER (UTC) (F) (DEG/KT/KT) (MB) (MI) (FT/S) BOSTON BUOY 2250 42 43 250/ 10/ 12 1005.5R 1/ 8 BUZZARDS BAY 2200 42 300/ 11/ 12 1007.3F NANTUCKET SOUND 2150 39 42 320/ 10/ 12 1006.2 1/ 3 MASS BAY-STELLWA 2204 40 42 1004.5R 2/11 ISLE OF SHOALS 2300 42 340/ 10/ 11 1006.0R S OF BLOCK IS 2243 41 N/A 2/ 8 $$ ......................KEY......................... SKY/WX - SKY CONDITION/PRESENT WEATHER TMP - TEMPERATURE IN FAHRENHEIT DWPT - DEWPOINT IN FAHRENHEIT RH - RELATIVE HUMIDITY IN PERCENT WIND - DIRECTION AND SPEED IN MPH PRES - MEAN SEA LEVEL PRESSURE IN INCHES OF HG WCI - WIND CHILL INDEX VSB - VISIBILITY IN MILES HX - HEAT INDEX TC - TEMPERATURE IN CELSIUS VRB - VARIABLE WIND DIRECTION N/A - NOT AVAILABLE

USA.gov is the U.S. government's official web portal to all federal, state and local government web resources and services.